EZY57AF EGKK-LFPG

Flight info

Callsign EZY57AF
Flight time 0h 37m
Altitude 25000
Route SFD M605 HARDY UM605 BIBAX
Aircraft A320/M-SDE3FGHIRWY/LB1

Departure

Time 2026-05-04 21:29
Airport London Gatwick Airport (EGKK)

Arrival

Time 2026-05-04 22:06
Airport Charles de Gaulle International Airport (LFPG)
Time Latitude Longitude Altitude Speed Heading
2026-05-04 20:54 51.15833 -0.17630 204 ft 0 kts 347°
2026-05-04 21:14 51.15825 -0.17627 204 ft 4 kts 347°
2026-05-04 21:14 51.15799 -0.17618 208 ft 4 kts 347°
2026-05-04 21:15 51.15774 -0.17609 212 ft 2 kts 347°
2026-05-04 21:15 51.15755 -0.17598 213 ft 4 kts 301°
2026-05-04 21:15 51.15753 -0.17566 213 ft 4 kts 257°
2026-05-04 21:15 51.15756 -0.17546 214 ft 0 kts 257°
2026-05-04 21:18 51.15754 -0.17558 213 ft 5 kts 257°
2026-05-04 21:18 51.15740 -0.17656 207 ft 13 kts 257°
2026-05-04 21:18 51.15714 -0.17847 208 ft 22 kts 258°
2026-05-04 21:18 51.15681 -0.18092 204 ft 23 kts 257°
2026-05-04 21:19 51.15651 -0.18302 206 ft 14 kts 256°
2026-05-04 21:19 51.15579 -0.18343 213 ft 12 kts 167°
2026-05-04 21:19 51.15477 -0.18306 209 ft 18 kts 167°
2026-05-04 21:19 51.15331 -0.18255 204 ft 24 kts 167°
2026-05-04 21:20 51.15196 -0.18233 216 ft 7 kts 231°
2026-05-04 21:20 51.15186 -0.18315 214 ft 9 kts 266°
2026-05-04 21:20 51.15171 -0.18444 211 ft 15 kts 256°
2026-05-04 21:20 51.15143 -0.18641 210 ft 21 kts 258°
2026-05-04 21:21 51.15111 -0.18876 208 ft 22 kts 257°
2026-05-04 21:21 51.15078 -0.19115 204 ft 22 kts 258°
2026-05-04 21:21 51.15044 -0.19360 204 ft 23 kts 257°
2026-05-04 21:21 51.15009 -0.19617 210 ft 24 kts 257°
2026-05-04 21:22 51.14971 -0.19893 213 ft 27 kts 258°
2026-05-04 21:22 51.14928 -0.20196 213 ft 29 kts 257°
2026-05-04 21:22 51.14885 -0.20515 214 ft 28 kts 257°
2026-05-04 21:22 51.14842 -0.20823 215 ft 29 kts 257°
2026-05-04 21:23 51.14812 -0.21044 217 ft 16 kts 257°
2026-05-04 21:23 51.14780 -0.21208 209 ft 15 kts 255°
2026-05-04 21:23 51.14756 -0.21365 204 ft 14 kts 249°
2026-05-04 21:23 51.14693 -0.21393 212 ft 7 kts 160°
2026-05-04 21:24 51.14656 -0.21353 216 ft 6 kts 141°
2026-05-04 21:24 51.14633 -0.21332 207 ft 6 kts 157°
2026-05-04 21:24 51.14617 -0.21326 206 ft 0 kts 167°
2026-05-04 21:27 51.14603 -0.21321 208 ft 4 kts 168°
2026-05-04 21:27 51.14560 -0.21298 205 ft 9 kts 152°
2026-05-04 21:27 51.14521 -0.21182 206 ft 14 kts 91°
2026-05-04 21:28 51.14535 -0.21057 207 ft 1 kts 78°
2026-05-04 21:28 51.14539 -0.21030 204 ft 13 kts 78°
2026-05-04 21:28 51.14628 -0.20394 210 ft 105 kts 78°
2026-05-04 21:29 51.14842 -0.18835 386 ft 167 kts 77°
2026-05-04 21:29 51.15097 -0.17014 1433 ft 171 kts 76°
2026-05-04 21:29 51.15368 -0.15062 1917 ft 193 kts 77°
2026-05-04 21:29 51.15665 -0.12858 2360 ft 215 kts 77°
2026-05-04 21:30 51.15993 -0.10415 3033 ft 228 kts 77°
2026-05-04 21:30 51.16163 -0.07938 4076 ft 228 kts 98°
2026-05-04 21:30 51.15441 -0.05734 4927 ft 239 kts 135°
2026-05-04 21:30 51.13955 -0.04438 5668 ft 250 kts 161°
2026-05-04 21:31 51.10372 -0.03289 6013 ft 273 kts 171°
2026-05-04 21:31 51.08491 -0.02795 6011 ft 275 kts 167°
2026-05-04 21:31 51.06605 -0.02104 6667 ft 278 kts 165°
2026-05-04 21:32 51.04736 -0.01309 7761 ft 279 kts 164°
2026-05-04 21:32 51.02861 -0.00452 8778 ft 282 kts 163°
2026-05-04 21:32 51.00967 0.00444 9787 ft 286 kts 163°
2026-05-04 21:32 50.99050 0.01363 10712 ft 289 kts 162°
2026-05-04 21:33 50.97110 0.02293 11615 ft 293 kts 162°
2026-05-04 21:33 50.95156 0.03224 12543 ft 296 kts 162°
2026-05-04 21:33 50.93171 0.04164 13459 ft 300 kts 162°
2026-05-04 21:33 50.91265 0.05066 14218 ft 304 kts 162°
2026-05-04 21:34 50.89231 0.06028 15029 ft 306 kts 162°
2026-05-04 21:34 50.87180 0.06993 15834 ft 309 kts 162°
2026-05-04 21:34 50.85571 0.07745 16412 ft 313 kts 162°
2026-05-04 21:34 50.83472 0.08723 17198 ft 315 kts 162°
2026-05-04 21:35 50.81356 0.09708 18001 ft 319 kts 162°
2026-05-04 21:35 50.79217 0.10704 18701 ft 322 kts 163°
2026-05-04 21:35 50.77072 0.11793 19379 ft 325 kts 157°
2026-05-04 21:35 50.75065 0.13483 19877 ft 335 kts 146°
2026-05-04 21:36 50.73180 0.15825 20003 ft 355 kts 141°
2026-05-04 21:36 50.71235 0.18343 20339 ft 367 kts 141°
2026-05-04 21:36 50.69245 0.20919 20887 ft 372 kts 141°
2026-05-04 21:36 50.67256 0.23482 21496 ft 375 kts 142°
2026-05-04 21:37 50.65223 0.26083 22110 ft 378 kts 142°
2026-05-04 21:37 50.63166 0.28700 22724 ft 381 kts 142°
2026-05-04 21:37 50.61098 0.31333 23338 ft 384 kts 142°
2026-05-04 21:37 50.59017 0.33990 23876 ft 386 kts 142°
2026-05-04 21:38 50.56921 0.36663 24367 ft 389 kts 142°
2026-05-04 21:38 50.54802 0.39359 24830 ft 392 kts 142°
2026-05-04 21:38 50.52680 0.42053 24987 ft 392 kts 142°
2026-05-04 21:38 50.50590 0.44695 25024 ft 379 kts 143°
2026-05-04 21:39 50.48550 0.47275 25020 ft 375 kts 143°
2026-05-04 21:39 50.46519 0.49844 25027 ft 374 kts 143°
2026-05-04 21:39 50.44485 0.52414 25027 ft 376 kts 143°
2026-05-04 21:39 50.42444 0.54988 25027 ft 376 kts 143°
2026-05-04 21:40 50.40406 0.57556 25019 ft 375 kts 142°
2026-05-04 21:40 50.38368 0.60122 25019 ft 376 kts 142°
2026-05-04 21:40 50.36328 0.62687 25019 ft 376 kts 142°
2026-05-04 21:40 50.34284 0.65253 25018 ft 377 kts 142°
2026-05-04 21:41 50.32241 0.67817 25018 ft 380 kts 143°
2026-05-04 21:41 50.30128 0.70461 25018 ft 398 kts 143°
2026-05-04 21:41 50.27921 0.73217 25018 ft 413 kts 143°
2026-05-04 21:41 50.25637 0.76069 25014 ft 427 kts 143°
2026-05-04 21:42 50.23274 0.79019 25007 ft 441 kts 142°
2026-05-04 21:42 50.20848 0.82045 25008 ft 452 kts 142°
2026-05-04 21:42 50.18366 0.85139 25010 ft 462 kts 143°
2026-05-04 21:42 50.15834 0.88298 25008 ft 471 kts 143°
2026-05-04 21:43 50.13262 0.91501 24992 ft 476 kts 143°
2026-05-04 21:43 50.10662 0.94726 25002 ft 479 kts 142°
2026-05-04 21:43 50.08052 0.97961 25000 ft 477 kts 142°
2026-05-04 21:43 50.05443 1.00946 24942 ft 452 kts 150°
2026-05-04 21:44 50.02750 1.03096 24829 ft 430 kts 155°
2026-05-04 21:44 50.00125 1.05082 24706 ft 410 kts 155°
2026-05-04 21:44 49.97616 1.06970 24584 ft 393 kts 155°
2026-05-04 21:44 49.95169 1.08801 24437 ft 377 kts 155°
2026-05-04 21:45 49.92869 1.10515 24079 ft 369 kts 155°
2026-05-04 21:45 49.90563 1.12233 23612 ft 365 kts 154°
2026-05-04 21:45 49.88285 1.13939 23058 ft 363 kts 154°
2026-05-04 21:45 49.86022 1.15639 22520 ft 360 kts 154°
2026-05-04 21:46 49.83778 1.17322 22008 ft 357 kts 154°
2026-05-04 21:46 49.81550 1.18990 21519 ft 354 kts 154°
2026-05-04 21:46 49.79336 1.20644 21032 ft 352 kts 154°
2026-05-04 21:46 49.77140 1.22279 20557 ft 349 kts 154°
2026-05-04 21:47 49.74959 1.23900 20099 ft 347 kts 154°
2026-05-04 21:47 49.72792 1.25511 19663 ft 344 kts 154°
2026-05-04 21:47 49.70643 1.27108 19224 ft 341 kts 154°
2026-05-04 21:47 49.68510 1.28694 18780 ft 339 kts 154°
2026-05-04 21:48 49.66391 1.30272 18357 ft 337 kts 154°
2026-05-04 21:48 49.64287 1.31836 17870 ft 335 kts 154°
2026-05-04 21:48 49.62195 1.33387 17406 ft 333 kts 154°
2026-05-04 21:48 49.60116 1.34925 16947 ft 331 kts 154°
2026-05-04 21:49 49.58037 1.36459 16456 ft 330 kts 154°
2026-05-04 21:49 49.55972 1.37983 16019 ft 329 kts 154°
2026-05-04 21:49 49.53915 1.39499 15608 ft 327 kts 154°
2026-05-04 21:49 49.51871 1.41001 15212 ft 324 kts 154°
2026-05-04 21:50 49.49839 1.42496 14818 ft 322 kts 154°
2026-05-04 21:50 49.47816 1.43984 14450 ft 320 kts 154°
2026-05-04 21:50 49.45815 1.45457 14063 ft 318 kts 154°
2026-05-04 21:50 49.43826 1.46919 13722 ft 315 kts 154°
2026-05-04 21:51 49.41860 1.48362 13372 ft 312 kts 154°
2026-05-04 21:51 49.39908 1.49794 13050 ft 310 kts 154°
2026-05-04 21:51 49.37963 1.51219 12731 ft 308 kts 154°
2026-05-04 21:51 49.36032 1.52631 12411 ft 307 kts 154°
2026-05-04 21:52 49.34127 1.54099 12085 ft 305 kts 148°
2026-05-04 21:52 49.32455 1.56068 11778 ft 303 kts 135°
2026-05-04 21:52 49.31124 1.58556 11459 ft 301 kts 122°
2026-05-04 21:52 49.30194 1.61407 11133 ft 299 kts 109°
2026-05-04 21:53 49.29695 1.64486 10799 ft 297 kts 97°
2026-05-04 21:53 49.29536 1.67634 10472 ft 296 kts 94°
2026-05-04 21:53 49.29381 1.70762 10147 ft 294 kts 98°
2026-05-04 21:53 49.28772 1.73708 9922 ft 287 kts 117°
2026-05-04 21:54 49.27607 1.76134 9701 ft 281 kts 135°
2026-05-04 21:54 49.26005 1.77857 9606 ft 283 kts 153°
2026-05-04 21:54 49.24197 1.79093 9445 ft 285 kts 155°
2026-05-04 21:54 49.22387 1.80313 9260 ft 284 kts 155°
2026-05-04 21:55 49.20580 1.81527 9072 ft 283 kts 155°
2026-05-04 21:55 49.18777 1.82738 8883 ft 282 kts 155°
2026-05-04 21:55 49.16982 1.83947 8694 ft 282 kts 155°
2026-05-04 21:55 49.15191 1.85156 8511 ft 281 kts 154°
2026-05-04 21:56 49.13407 1.86359 8322 ft 280 kts 155°
2026-05-04 21:56 49.11626 1.87556 8137 ft 279 kts 155°
2026-05-04 21:56 49.09870 1.88734 7953 ft 279 kts 155°
2026-05-04 21:56 49.08095 1.89923 7774 ft 278 kts 155°
2026-05-04 21:57 49.06328 1.91105 7579 ft 277 kts 155°
2026-05-04 21:57 49.04567 1.92281 7410 ft 276 kts 155°
2026-05-04 21:57 49.02810 1.93455 7215 ft 272 kts 155°
2026-05-04 21:57 49.01194 1.94825 7048 ft 259 kts 140°
2026-05-04 21:58 49.00008 1.96793 6873 ft 248 kts 122°
2026-05-04 21:58 48.99313 1.99135 6664 ft 239 kts 104°
2026-05-04 21:58 48.98931 2.01554 6465 ft 232 kts 103°
2026-05-04 21:58 48.98555 2.03906 6265 ft 225 kts 103°
2026-05-04 21:59 48.98187 2.06184 6067 ft 219 kts 103°
2026-05-04 21:59 48.97828 2.08404 5894 ft 214 kts 103°
2026-05-04 21:59 48.97475 2.10590 5742 ft 212 kts 103°
2026-05-04 21:59 48.97129 2.12775 5582 ft 212 kts 99°
2026-05-04 22:00 48.97024 2.15000 5408 ft 210 kts 88°
2026-05-04 22:00 48.97106 2.17213 5287 ft 209 kts 85°
2026-05-04 22:00 48.97228 2.19424 5101 ft 209 kts 84°
2026-05-04 22:00 48.97355 2.21632 4850 ft 210 kts 84°
2026-05-04 22:01 48.97481 2.23846 4580 ft 210 kts 84°
2026-05-04 22:01 48.97605 2.26043 4313 ft 207 kts 84°
2026-05-04 22:01 48.97729 2.28224 4015 ft 206 kts 84°
2026-05-04 22:01 48.97851 2.30399 3733 ft 205 kts 84°
2026-05-04 22:02 48.97972 2.32552 3461 ft 204 kts 84°
2026-05-04 22:02 48.98091 2.34693 3194 ft 203 kts 84°
2026-05-04 22:02 48.98208 2.36795 2923 ft 198 kts 84°
2026-05-04 22:02 48.98321 2.38830 2663 ft 186 kts 84°
2026-05-04 22:03 48.98424 2.40706 2421 ft 170 kts 84°
2026-05-04 22:03 48.98520 2.42441 2194 ft 159 kts 83°
2026-05-04 22:03 48.98611 2.44089 1989 ft 150 kts 83°
2026-05-04 22:03 48.98692 2.45572 1816 ft 137 kts 83°
2026-05-04 22:04 48.98770 2.46986 1627 ft 132 kts 83°
2026-05-04 22:04 48.98845 2.48363 1442 ft 130 kts 84°
2026-05-04 22:04 48.98921 2.49741 1269 ft 130 kts 84°
2026-05-04 22:04 48.98995 2.51112 1087 ft 130 kts 83°
2026-05-04 22:05 48.99070 2.52493 918 ft 132 kts 83°
2026-05-04 22:05 48.99146 2.53883 738 ft 132 kts 84°
2026-05-04 22:05 48.99219 2.55272 577 ft 131 kts 83°
2026-05-04 22:05 48.99295 2.56641 406 ft 129 kts 83°
2026-05-04 22:06 48.99366 2.57904 357 ft 111 kts 82°
2026-05-04 22:06 48.99411 2.58777 359 ft 58 kts 86°
2026-05-04 22:06 48.99445 2.59171 353 ft 25 kts 74°
2026-05-04 22:06 48.99514 2.59412 359 ft 25 kts 65°
2026-05-04 22:07 48.99591 2.59653 362 ft 21 kts 51°
2026-05-04 22:07 48.99736 2.59681 354 ft 23 kts 354°
2026-05-04 22:07 48.99904 2.59660 363 ft 25 kts 356°
2026-05-04 22:07 49.00085 2.59640 354 ft 27 kts 355°
2026-05-04 22:08 49.00279 2.59616 354 ft 29 kts 355°
2026-05-04 22:08 49.00416 2.59599 361 ft 30 kts 355°
2026-05-04 22:08 49.00627 2.59574 354 ft 31 kts 355°
2026-05-04 22:08 49.00847 2.59546 355 ft 32 kts 355°
2026-05-04 22:09 49.00998 2.59496 357 ft 9 kts 299°
2026-05-04 22:09 49.01000 2.59405 355 ft 11 kts 267°
2026-05-04 22:09 49.00993 2.59251 355 ft 17 kts 266°
2026-05-04 22:09 49.00977 2.59053 360 ft 20 kts 254°
2026-05-04 22:10 49.00948 2.58830 360 ft 23 kts 264°
2026-05-04 22:10 49.00933 2.58574 355 ft 26 kts 265°
2026-05-04 22:10 49.00918 2.58291 355 ft 28 kts 265°
2026-05-04 22:10 49.00903 2.57985 355 ft 30 kts 265°
2026-05-04 22:11 49.00885 2.57658 355 ft 32 kts 265°
2026-05-04 22:11 49.00866 2.57314 360 ft 33 kts 263°
2026-05-04 22:11 49.00846 2.56956 355 ft 35 kts 266°
2026-05-04 22:11 49.00826 2.56587 355 ft 34 kts 265°
2026-05-04 22:12 49.00777 2.56416 361 ft 14 kts 185°
2026-05-04 22:12 49.00682 2.56428 356 ft 13 kts 175°
2026-05-04 22:12 49.00622 2.56358 355 ft 11 kts 259°
2026-05-04 22:12 49.00616 2.56244 355 ft 10 kts 267°
2026-05-04 22:13 49.00612 2.56142 355 ft 9 kts 264°
2026-05-04 22:13 49.00593 2.56033 356 ft 11 kts 250°
2026-05-04 22:13 49.00554 2.55958 360 ft 9 kts 200°
2026-05-04 22:13 49.00498 2.55953 360 ft 8 kts 174°
2026-05-04 22:14 49.00481 2.55956 355 ft 0 kts 173°
2026-05-04 22:14 49.00479 2.55956 355 ft 0 kts 173°
2026-05-04 22:14 49.00477 2.55957 358 ft 0 kts 173°